EW7213 Weather Reports


time (UTC)temp
F
wind
direction
speed
knots
gust
knots
rain 1hr
in
rain 24hr
in
rain mn
in
humidity
%
barometer
mb
20260509022350 56 248 0.0 0.0 0.00 0.00 0.00 69 1010.5
20260509021850 56 248 0.0 0.0 0.00 0.00 0.00 69 1010.5
20260509021348 56 248 0.0 0.0 0.00 0.00 0.00 69 1010.5
20260509020848 57 248 0.0 0.0 0.00 0.00 0.00 67 1010.5
20260509020347 57 248 0.0 0.0 0.00 0.00 0.00 65 1010.5
20260509015852 58 248 0.0 0.0 0.00 0.00 0.00 63 1010.4
20260509015848 58 248 0.0 0.0 0.00 0.00 0.00 64 1010.4
20260509014847 58 248 0.0 0.0 0.00 0.00 0.00 62 1010.4
20260509014352 59 248 0.0 0.0 0.00 0.00 0.00 62 1010.2
20260509014348 58 248 0.0 0.0 0.00 0.00 0.00 63 1010.3
20260509013353 60 248 0.0 0.0 0.00 0.00 0.00 62 1010.2
20260509013349 59 248 0.0 0.0 0.00 0.00 0.00 62 1010.2
20260509012346 60 248 0.0 0.0 0.00 0.00 0.00 60 1010.2
20260509011845 60 248 0.0 0.0 0.00 0.00 0.00 59 1010.2
20260509011346 61 248 0.0 0.0 0.00 0.00 0.00 58 1010.2
20260509010845 61 248 0.0 0.0 0.00 0.00 0.00 58 1010.2
20260509010347 62 248 0.0 0.0 0.00 0.00 0.00 57 1010.2
20260509005845 63 248 0.0 0.0 0.00 0.00 0.00 52 1010.2
20260509005345 64 248 0.0 0.0 0.00 0.00 0.00 51 1010.2
20260509004845 64 248 0.0 0.0 0.00 0.00 0.00 49 1010.2
20260509004346 65 248 0.0 0.0 0.00 0.00 0.00 49 1010.2
20260509003845 65 248 0.0 0.0 0.00 0.00 0.00 48 1010.3
20260509003344 66 248 0.0 0.0 0.00 0.00 0.00 47 1010.2
20260509002843 66 248 0.0 0.0 0.00 0.00 0.00 45 1010.3
20260509002343 67 248 0.0 0.0 0.00 0.00 0.00 43 1010.3
20260509001843 68 248 0.0 0.0 0.00 0.00 0.00 41 1010.3
20260509001344 69 248 0.0 0.0 0.00 0.00 0.00 39 1010.5
20260509000843 70 248 0.0 0.0 0.00 0.00 0.00 37 1010.5
20260509000344 70 248 0.0 0.0 0.00 0.00 0.00 37 1010.6
20260508235843 70 248 0.0 0.0 0.00 0.00 0.00 36 1010.6
20260508235346 70 249 0.0 0.0 0.00 0.00 0.00 35 1010.6
20260508235341 70 248 0.0 0.0 0.00 0.00 0.00 35 1010.5
20260508234946 71 244 0.0 0.0 0.00 0.00 0.00 34 1010.6
20260508233839 71 213 0.0 0.0 0.00 0.00 0.00 33 1010.6
20260508233339 71 255 0.0 0.0 0.00 0.00 0.00 34 1010.6
20260508232840 71 209 0.0 0.0 0.00 0.00 0.00 33 1010.6
20260508232337 71 240 0.0 0.0 0.00 0.00 0.00 34 1010.7
20260508231838 71 222 0.0 0.0 0.00 0.00 0.00 34 1010.7
20260508231337 71 196 0.0 0.0 0.00 0.00 0.00 33 1010.8
20260508230837 71 220 0.0 0.0 0.00 0.00 0.00 33 1010.8
20260508230340 71 237 0.0 0.0 0.00 0.00 0.00 32 1010.9
20260508230336 71 212 0.0 0.0 0.00 0.00 0.00 32 1010.9
20260508225335 71 268 0.0 0.0 0.00 0.00 0.00 31 1011.0
20260508224833 71 248 0.0 0.0 0.00 0.00 0.00 32 1010.9
20260508224333 71 237 0.0 0.0 0.00 0.00 0.00 31 1010.9
20260508223832 71 246 0.0 0.0 0.00 0.00 0.00 31 1010.9
20260508223333 71 197 0.0 0.0 0.00 0.00 0.00 31 1010.9
20260508222833 72 200 0.0 0.0 0.00 0.00 0.00 30 1010.9
20260508222332 71 221 0.0 0.0 0.00 0.00 0.00 30 1010.8
20260508221833 71 235 0.0 0.0 0.00 0.00 0.00 29 1010.8
20260508221333 71 213 0.0 0.0 0.00 0.00 0.00 29 1010.8
20260508220833 72 217 0.0 0.0 0.00 0.00 0.00 29 1010.8
20260508220333 71 212 0.0 0.0 0.00 0.00 0.00 31 1010.8
20260508215832 71 255 0.0 0.0 0.00 0.00 0.00 29 1010.8
20260508215333 72 207 0.0 0.0 0.00 0.00 0.00 31 1010.7
20260508214832 71 161 0.0 0.0 0.00 0.00 0.00 32 1010.6
20260508214333 71 165 0.0 0.0 0.00 0.00 0.00 32 1010.6
20260508213832 71 177 0.0 0.0 0.00 0.00 0.00 32 1010.7
20260508213332 71 163 0.0 0.0 0.00 0.00 0.00 31 1010.7
20260508212833 71 257 0.0 0.0 0.00 0.00 0.00 31 1010.8
20260508212337 71 191 0.0 0.0 0.00 0.00 0.00 30 1010.9
20260508212333 71 202 0.0 0.0 0.00 0.00 0.00 31 1010.9
20260508211939 71 178 0.0 0.0 0.00 0.00 0.00 30 1010.9
20260508210832 71 257 0.0 0.0 0.00 0.00 0.00 31 1011.1
20260508210333 71 219 0.0 0.0 0.00 0.00 0.00 31 1011.2
20260508205832 71 194 0.0 0.0 0.00 0.00 0.00 31 1011.2
20260508205333 71 235 0.0 0.0 0.00 0.00 0.00 30 1011.3
20260508204832 71 192 0.0 0.0 0.00 0.00 0.00 30 1011.3
20260508204334 71 217 0.0 0.0 0.00 0.00 0.00 29 1011.4
20260508203833 71 227 0.0 0.0 0.00 0.00 0.00 30 1011.5
20260508203332 71 176 0.0 0.0 0.00 0.00 0.00 30 1011.6
20260508202833 71 187 0.0 0.0 0.00 0.00 0.00 30 1011.5
20260508202333 71 224 0.0 0.0 0.00 0.00 0.00 31 1011.5
20260508201833 70 225 0.0 0.0 0.00 0.00 0.00 32 1011.6
20260508201332 70 193 0.0 0.0 0.00 0.00 0.00 31 1011.7
20260508200832 70 244 0.0 0.0 0.00 0.00 0.00 30 1011.8
20260508200338 71 209 0.0 0.0 0.00 0.00 0.00 30 1011.8
20260508200332 70 261 0.0 0.0 0.00 0.00 0.00 30 1011.7
20260508195834 70 226 0.0 0.0 0.00 0.00 0.00 30 1011.8
20260508194832 70 219 0.0 0.0 0.00 0.00 0.00 32 1011.8
20260508194333 70 260 0.0 0.0 0.00 0.00 0.00 30 1011.9
20260508193836 70 164 0.0 0.0 0.00 0.00 0.00 32 1012.0
20260508193832 70 166 0.0 0.0 0.00 0.00 0.00 33 1012.1
20260508192830 70 173 0.0 0.0 0.00 0.00 0.00 34 1012.2
20260508192336 69 248 0.0 0.0 0.00 0.00 0.00 33 1012.5
20260508192331 69 183 0.0 0.0 0.00 0.00 0.00 32 1012.4
20260508191332 69 210 0.0 0.0 0.00 0.00 0.00 33 1012.6
20260508190831 69 161 0.0 0.0 0.00 0.00 0.00 34 1012.6
20260508190336 69 174 0.0 0.0 0.00 0.00 0.00 34 1012.8
20260508190331 69 234 0.0 0.0 0.00 0.00 0.00 36 1012.7
20260508185332 69 177 0.0 0.0 0.00 0.00 0.00 33 1012.7
20260508184832 69 266 0.0 0.0 0.00 0.00 0.00 33 1012.9
20260508184828 69 202 0.0 0.0 0.00 0.00 0.00 34 1012.8
20260508183830 68 148 0.0 0.0 0.00 0.00 0.00 38 1013.1
20260508183826 68 204 0.0 0.0 0.00 0.00 0.00 34 1013.0
20260508182826 68 210 0.0 0.0 0.00 0.00 0.00 35 1013.2
20260508182326 68 183 0.0 0.0 0.00 0.00 0.00 35 1013.3
20260508181824 68 221 0.0 0.0 0.00 0.00 0.00 35 1013.3
20260508181328 68 129 0.0 0.0 0.00 0.00 0.00 36 1013.5
20260508181324 68 208 0.0 0.0 0.00 0.00 0.00 36 1013.5
20260508180323 68 141 0.0 0.0 0.00 0.00 0.00 34 1013.7
20260508175822 68 219 0.0 0.0 0.00 0.00 0.00 35 1013.8
20260508175322 68 175 0.0 0.0 0.00 0.00 0.00 37 1013.9
20260508174822 68 252 0.0 0.0 0.00 0.00 0.00 38 1013.9
20260508174322 67 185 0.0 0.0 0.00 0.00 0.00 36 1014.1
20260508173822 68 189 0.0 0.0 0.00 0.00 0.00 36 1014.2
20260508173322 68 178 0.0 0.0 0.00 0.00 0.00 36 1014.2
20260508172822 68 249 0.0 0.0 0.00 0.00 0.00 37 1014.4
20260508172323 67 125 0.0 0.0 0.00 0.00 0.00 34 1014.6
20260508171822 67 101 0.0 0.0 0.00 0.00 0.00 35 1014.8
20260508171323 67 185 0.0 0.0 0.00 0.00 0.00 40 1014.7
20260508170822 67 165 0.0 0.0 0.00 0.00 0.00 40 1014.8
20260508170321 67 192 0.0 0.0 0.00 0.00 0.00 42 1014.9
20260508165821 66 209 0.0 0.0 0.00 0.00 0.00 41 1015.0
20260508165319 66 180 0.0 0.0 0.00 0.00 0.00 38 1015.0
20260508164825 66 191 0.0 0.0 0.00 0.00 0.00 43 1015.2
20260508164821 66 275 0.0 0.0 0.00 0.00 0.00 41 1015.2
20260508163824 66 174 0.0 0.0 0.00 0.00 0.00 42 1015.4
20260508163820 66 182 0.0 0.0 0.00 0.00 0.00 40 1015.3
20260508162820 65 194 0.0 0.0 0.00 0.00 0.00 43 1015.5
20260508162320 65 169 0.0 0.0 0.00 0.00 0.00 42 1015.5
20260508161818 65 247 0.0 0.0 0.00 0.00 0.00 43 1015.6
20260508161317 65 145 0.0 0.0 0.00 0.00 0.00 43 1015.7
20260508160822 64 173 0.0 0.0 0.00 0.00 0.00 42 1015.9
20260508160818 65 137 0.0 0.0 0.00 0.00 0.00 44 1015.8
20260508155818 64 163 0.0 0.0 0.00 0.00 0.00 42 1015.9
20260508155319 64 178 0.0 0.0 0.00 0.00 0.00 43 1016.0
20260508154817 64 150 0.0 0.0 0.00 0.00 0.00 43 1016.0
20260508154320 64 182 0.0 0.0 0.00 0.00 0.00 44 1016.0
20260508153822 63 165 0.0 0.0 0.00 0.00 0.00 45 1016.2
20260508153818 63 204 0.0 0.0 0.00 0.00 0.00 43 1016.0
20260508152818 62 233 0.0 0.0 0.00 0.00 0.00 45 1016.3
20260508152319 62 254 0.0 0.0 0.00 0.00 0.00 47 1016.3
20260508151817 61 205 0.0 0.0 0.00 0.00 0.00 47 1016.5
20260508151318 61 230 0.0 0.0 0.00 0.00 0.00 48 1016.5
20260508150818 61 219 0.0 0.0 0.00 0.00 0.00 48 1016.6
20260508150318 61 202 0.0 0.0 0.00 0.00 0.00 50 1016.6
20260508145818 60 244 0.0 0.0 0.00 0.00 0.00 50 1016.6
20260508145323 60 212 0.0 0.0 0.00 0.00 0.00 50 1016.7
20260508145319 60 249 0.0 0.0 0.00 0.00 0.00 49 1016.6
20260508144317 60 240 0.0 0.0 0.00 0.00 0.00 52 1016.7
20260508143815 60 219 0.0 0.0 0.00 0.00 0.00 54 1016.7
20260508143316 59 231 0.0 0.0 0.00 0.00 0.00 57 1016.7
20260508142816 58 185 0.0 0.0 0.00 0.00 0.00 60 1016.8
20260508142315 57 202 0.0 0.0 0.00 0.00 0.00 64 1016.8
20260508141816 56 169 0.0 0.0 0.00 0.00 0.00 69 1016.9
20260508141315 55 257 0.0 0.0 0.00 0.00 0.00 74 1016.9
20260508140816 55 230 0.0 0.0 0.00 0.00 0.00 75 1016.9
20260508140315 54 240 0.0 0.0 0.00 0.00 0.00 79 1016.9
20260508135817 53 240 0.0 0.0 0.00 0.00 0.00 81 1017.0
20260508135316 52 248 0.0 0.0 0.00 0.00 0.00 83 1016.9
20260508134816 51 254 0.0 0.0 0.00 0.00 0.00 83 1017.0
20260508134316 51 243 0.0 0.0 0.00 0.00 0.00 84 1017.1
20260508133815 50 240 0.0 0.0 0.00 0.00 0.00 86 1017.1
20260508133317 49 219 0.0 0.0 0.00 0.00 0.00 87 1017.0
20260508132817 48 247 0.0 0.0 0.00 0.00 0.00 89 1017.0
20260508132316 47 247 0.0 0.0 0.00 0.00 0.00 89 1017.0
20260508131820 46 246 0.0 0.0 0.00 0.00 0.00 89 1016.9
20260508131816 46 246 0.0 0.0 0.00 0.00 0.00 89 1017.0
20260508131422 45 261 0.0 0.0 0.00 0.00 0.00 89 1016.8
20260508130315 44 260 0.0 0.0 0.00 0.00 0.00 89 1016.8
20260508125820 44 260 0.0 0.0 0.00 0.00 0.00 90 1016.8
20260508125815 44 260 0.0 0.0 0.00 0.00 0.00 89 1016.8
20260508124815 43 233 0.0 0.0 0.00 0.00 0.00 91 1016.8
20260508124315 43 229 0.0 0.0 0.00 0.00 0.00 92 1016.8
20260508123821 41 229 0.0 0.0 0.00 0.00 0.00 92 1016.8
20260508123816 42 229 0.0 0.0 0.00 0.00 0.00 92 1016.8
20260508122815 41 229 0.0 0.0 0.00 0.00 0.00 92 1016.8
20260508122317 41 229 0.0 0.0 0.00 0.00 0.00 92 1016.8
20260508121815 40 229 0.0 0.0 0.00 0.00 0.00 92 1016.7
20260508121319 40 229 0.0 0.0 0.00 0.00 0.00 93 1016.7
20260508121315 40 229 0.0 0.0 0.00 0.00 0.00 93 1016.8
20260508120314 39 229 0.0 0.0 0.00 0.00 0.00 93 1016.7
20260508115814 38 229 0.0 0.0 0.00 0.00 0.00 92 1016.6
20260508115317 38 228 0.0 0.0 0.00 0.00 0.00 92 1016.6
20260508115311 38 229 0.0 0.0 0.00 0.00 0.00 92 1016.6
20260508114811 38 228 0.0 0.0 0.00 0.00 0.00 93 1016.6
20260508113811 38 229 0.0 0.0 0.00 0.00 0.00 92 1016.6
20260508113312 38 229 0.0 0.0 0.00 0.00 0.00 92 1016.6
20260508112815 37 229 0.0 0.0 0.00 0.00 0.00 92 1016.3
20260508112811 37 229 0.0 0.0 0.00 0.00 0.00 92 1016.5
20260508111811 38 229 0.0 0.0 0.00 0.00 0.00 93 1016.1
20260508111311 37 229 0.0 0.0 0.00 0.00 0.00 92 1016.1
20260508110811 37 229 0.0 0.0 0.00 0.00 0.00 92 1016.0
20260508110309 37 229 0.0 0.0 0.00 0.00 0.00 92 1015.9
20260508105810 37 229 0.0 0.0 0.00 0.00 0.00 92 1015.9
20260508105309 37 229 0.0 0.0 0.00 0.00 0.00 92 1015.9
20260508104809 37 231 0.0 0.0 0.00 0.00 0.00 92 1015.8
20260508104310 37 231 0.0 0.0 0.00 0.00 0.00 92 1015.7
20260508103813 37 231 0.0 0.0 0.00 0.00 0.00 92 1015.8
20260508103809 37 231 0.0 0.0 0.00 0.00 0.00 92 1015.7
20260508102809 37 231 0.0 0.0 0.00 0.00 0.00 92 1015.8
20260508102309 37 231 0.0 0.0 0.00 0.00 0.00 92 1015.7
20260508101808 37 231 0.0 0.0 0.00 0.00 0.00 92 1015.7
20260508101307 37 231 0.0 0.0 0.00 0.00 0.00 92 1015.6
20260508100807 37 231 0.0 0.0 0.00 0.00 0.00 92 1015.7
20260508100307 38 231 0.0 0.0 0.00 0.00 0.00 92 1015.6
20260508095807 38 231 0.0 0.0 0.00 0.00 0.00 92 1015.6
20260508095308 38 231 0.0 0.0 0.00 0.00 0.00 92 1015.6
20260508094813 38 231 0.0 0.0 0.00 0.00 0.00 92 1015.7
20260508094807 38 231 0.0 0.0 0.00 0.00 0.00 92 1015.7
20260508094307 38 231 0.0 0.0 0.00 0.00 0.00 92 1015.7
20260508093306 38 231 0.0 0.0 0.00 0.00 0.00 92 1015.7
20260508092808 38 231 0.0 0.0 0.00 0.00 0.00 92 1015.7
20260508092313 38 231 0.0 0.0 0.00 0.00 0.00 92 1015.7
20260508091805 38 231 0.0 0.0 0.00 0.00 0.00 92 1015.7
20260508091305 38 231 0.0 0.0 0.00 0.00 0.00 92 1015.8
20260508090810 38 231 0.0 0.0 0.00 0.00 0.00 91 1015.8
20260508090806 38 231 0.0 0.0 0.00 0.00 0.00 91 1015.8
20260508090412 38 231 0.0 0.0 0.00 0.00 0.00 91 1015.8
20260508085307 39 231 0.0 0.0 0.00 0.00 0.00 92 1015.8
20260508084805 39 231 0.0 0.0 0.00 0.00 0.00 92 1015.8
20260508084309 39 231 0.0 0.0 0.00 0.00 0.00 91 1015.8
20260508084305 39 231 0.0 0.0 0.00 0.00 0.00 91 1015.8
20260508083304 39 231 0.0 0.0 0.00 0.00 0.00 91 1015.7
20260508082803 39 231 0.0 0.0 0.00 0.00 0.00 91 1015.7
20260508082306 39 231 0.0 0.0 0.00 0.00 0.00 91 1015.7
20260508081805 39 231 0.0 0.0 0.00 0.00 0.00 91 1015.7
20260508081801 39 231 0.0 0.0 0.00 0.00 0.00 91 1015.7
20260508080800 39 231 0.0 0.0 0.00 0.00 0.00 91 1015.7
20260508080304 39 231 0.0 0.0 0.00 0.00 0.00 91 1015.7
20260508080300 40 231 0.0 0.0 0.00 0.00 0.00 91 1015.7
20260508075906 40 231 0.0 0.0 0.00 0.00 0.00 91 1015.6
20260508075301 40 231 0.0 0.0 0.00 0.00 0.00 91 1015.6
20260508074258 40 231 0.0 0.0 0.00 0.00 0.00 91 1015.5
20260508073758 40 231 0.0 0.0 0.00 0.00 0.00 91 1015.5
20260508073258 40 231 0.0 0.0 0.00 0.00 0.00 91 1015.5
20260508072758 40 231 0.0 0.0 0.00 0.00 0.00 91 1015.6
20260508072258 40 231 0.0 0.0 0.00 0.00 0.00 91 1015.7
20260508071758 40 231 0.0 0.0 0.00 0.00 0.00 91 1015.7
20260508071256 40 231 0.0 0.0 0.00 0.00 0.00 91 1015.8
20260508070757 40 231 0.0 0.0 0.00 0.00 0.00 91 1015.7
20260508070256 40 231 0.0 0.0 0.00 0.00 0.00 91 1015.8
20260508065756 40 231 0.0 0.0 0.00 0.00 0.00 90 1015.9
20260508065256 41 231 0.0 0.0 0.00 0.00 0.00 90 1015.9
20260508064800 41 231 0.0 0.0 0.00 0.00 0.00 90 1016.0
20260508064756 41 231 0.0 0.0 0.00 0.00 0.00 90 1016.0
20260508064402 41 231 0.0 0.0 0.00 0.00 0.00 90 1015.9
20260508063256 41 231 0.0 0.0 0.00 0.00 0.00 90 1015.9
20260508062755 41 231 0.0 0.0 0.00 0.00 0.00 90 1015.8
20260508062254 41 231 0.0 0.0 0.00 0.00 0.00 90 1015.9
20260508061753 41 231 0.0 0.0 0.00 0.00 0.00 90 1015.8
20260508061254 42 231 0.0 0.0 0.00 0.00 0.00 90 1015.8
20260508060754 42 231 0.0 0.0 0.00 0.00 0.00 90 1015.9
20260508060254 42 231 0.0 0.0 0.00 0.00 0.00 90 1015.9
20260508055752 42 231 0.0 0.0 0.00 0.00 0.00 90 1015.9
20260508055251 42 231 0.0 0.0 0.00 0.00 0.00 90 1015.9
20260508054753 42 231 0.0 0.0 0.00 0.00 0.00 90 1016.0
20260508054251 42 231 0.0 0.0 0.00 0.00 0.00 90 1016.0
20260508053753 42 231 0.0 0.0 0.00 0.00 0.00 90 1016.0
20260508053250 42 231 0.0 0.0 0.00 0.00 0.00 90 1016.0
20260508052750 42 231 0.0 0.0 0.00 0.00 0.00 90 1016.0
20260508052249 42 231 0.0 0.0 0.00 0.00 0.00 90 1016.0
20260508051750 42 230 0.0 0.0 0.00 0.00 0.00 90 1016.1
20260508051250 43 230 0.0 0.0 0.00 0.00 0.00 89 1016.2
20260508050749 43 230 0.0 0.0 0.00 0.00 0.00 89 1016.2
20260508050248 43 230 0.0 0.0 0.00 0.00 0.00 89 1016.2
20260508045748 43 230 0.0 0.0 0.00 0.00 0.00 88 1016.2
20260508045249 43 242 0.0 0.0 0.00 0.00 0.00 87 1016.3
20260508044749 43 331 0.0 0.0 0.00 0.00 0.00 87 1016.3
20260508044248 44 350 0.0 0.0 0.00 0.00 0.00 87 1016.1
20260508043748 44 350 0.0 0.0 0.00 0.00 0.00 86 1016.0
20260508043247 44 350 0.0 0.0 0.00 0.00 0.00 86 1015.9
20260508042748 44 350 0.0 0.0 0.00 0.00 0.00 86 1015.8
20260508042253 44 350 0.0 0.0 0.00 0.00 0.00 86 1015.7
20260508042247 44 350 0.0 0.0 0.00 0.00 0.00 86 1015.8
20260508041253 44 350 0.0 0.0 0.00 0.00 0.00 86 1015.7
20260508041248 44 350 0.0 0.0 0.00 0.00 0.00 86 1015.7
20260508040253 45 350 0.0 0.0 0.00 0.00 0.00 85 1015.6
20260508040247 44 350 0.0 0.0 0.00 0.00 0.00 85 1015.7
20260508035248 45 350 0.0 0.0 0.00 0.00 0.00 85 1015.6
20260508034747 45 350 0.0 0.0 0.00 0.00 0.00 84 1015.5
20260508034248 45 350 0.0 0.0 0.00 0.00 0.00 83 1015.5
20260508033752 46 350 0.0 0.0 0.00 0.00 0.00 83 1015.7
20260508033747 46 350 0.0 0.0 0.00 0.00 0.00 83 1015.6
20260508032754 47 350 0.0 0.0 0.00 0.00 0.00 81 1015.8
20260508032747 46 350 0.0 0.0 0.00 0.00 0.00 82 1015.7
20260508032359 46 350 0.0 0.0 0.00 0.00 0.00 82 1015.7
20260508032247 46 350 0.0 0.0 0.00 0.00 0.00 82 1015.7
20260508030746 47 350 0.0 0.0 0.00 0.00 0.00 81 1015.8
20260508030246 47 350 0.0 0.0 0.00 0.00 0.00 80 1015.7
20260508025747 47 350 0.0 0.0 0.00 0.00 0.00 79 1015.6
20260508025245 48 350 0.0 0.0 0.00 0.00 0.00 78 1015.6
20260508024749 48 350 0.0 0.0 0.00 0.00 0.00 77 1015.6
20260508024745 48 350 0.0 0.0 0.00 0.00 0.00 78 1015.6
20260508023745 49 350 0.0 0.0 0.00 0.00 0.00 77 1015.4
20260508023245 49 350 0.0 0.0 0.00 0.00 0.00 75 1015.4
20260508022745 49 350 0.0 0.0 0.00 0.00 0.00 74 1015.3